Time,TemperatureF,DewpointF,PressureIn,WindDirection,WindDirectionDegrees,WindSpeedMPH,WindSpeedGustMPH,Humidity,HourlyPrecipIn,Conditions,Clouds,dailyrainin,SoftwareType,DateUTC
2013-04-28 00:03:00,53.6,52.8,29.76,SSE,157,6.3,-999.0,97,-99.99,,,0.00,Acu-Link.com,2013-04-28 04:03:00,
2013-04-28 00:18:00,53.8,52.7,29.75,ESE,112,7.8,-999.0,96,-99.99,,,0.00,Acu-Link.com,2013-04-28 04:18:00,
2013-04-28 00:33:00,53.8,53.0,29.75,South,180,5.8,-999.0,97,-99.99,,,0.01,Acu-Link.com,2013-04-28 04:33:00,
2013-04-28 00:48:00,53.8,53.2,29.74,SSE,157,3.2,-999.0,98,-99.99,,,0.02,Acu-Link.com,2013-04-28 04:48:00,
2013-04-28 01:03:00,53.6,53.0,29.74,SSE,157,6.3,-999.0,98,-99.99,,,0.02,Acu-Link.com,2013-04-28 05:03:00,
2013-04-28 01:18:00,53.6,53.0,29.73,ESE,112,3.7,-999.0,98,-99.99,,,0.02,Acu-Link.com,2013-04-28 05:18:00,
2013-04-28 01:33:00,53.6,53.3,29.72,SE,135,4.7,-999.0,99,-99.99,,,0.02,Acu-Link.com,2013-04-28 05:33:00,
2013-04-28 01:48:00,53.6,53.3,29.71,ESE,112,6.8,-999.0,99,-99.99,,,0.02,Acu-Link.com,2013-04-28 05:48:00,
2013-04-28 02:04:00,53.6,53.3,29.70,ESE,112,3.7,-999.0,99,-99.99,,,0.02,Acu-Link.com,2013-04-28 06:04:00,
2013-04-28 02:19:00,53.6,53.3,29.69,ESE,112,7.3,-999.0,99,-99.99,,,0.02,Acu-Link.com,2013-04-28 06:19:00,
2013-04-28 02:34:00,53.6,53.3,29.68,ESE,112,4.7,-999.0,99,-99.99,,,0.03,Acu-Link.com,2013-04-28 06:34:00,
2013-04-28 02:49:00,53.6,53.3,29.67,ESE,112,3.7,-999.0,99,-99.99,,,0.05,Acu-Link.com,2013-04-28 06:49:00,
2013-04-28 03:04:00,53.6,53.3,29.67,East,90,4.2,-999.0,99,-99.99,,,0.05,Acu-Link.com,2013-04-28 07:04:00,
2013-04-28 03:20:00,53.4,53.1,29.66,ESE,112,2.7,-999.0,99,-99.99,,,0.06,Acu-Link.com,2013-04-28 07:20:00,
2013-04-28 03:35:00,53.4,53.1,29.66,ESE,112,4.7,-999.0,99,-99.99,,,0.07,Acu-Link.com,2013-04-28 07:35:00,
2013-04-28 03:50:00,53.4,53.1,29.65,ESE,112,4.2,-999.0,99,-99.99,,,0.07,Acu-Link.com,2013-04-28 07:50:00,
2013-04-28 04:05:00,53.4,53.1,29.66,ESE,112,5.3,-999.0,99,-99.99,,,0.07,Acu-Link.com,2013-04-28 08:05:00,
2013-04-28 04:21:00,53.2,52.9,29.65,SE,135,4.7,-999.0,99,-99.99,,,0.07,Acu-Link.com,2013-04-28 08:21:00,
2013-04-28 04:36:00,53.2,52.9,29.64,ESE,112,3.2,-999.0,99,-99.99,,,0.08,Acu-Link.com,2013-04-28 08:36:00,
2013-04-28 04:51:00,53.2,52.9,29.64,ESE,112,5.3,-999.0,99,-99.99,,,0.08,Acu-Link.com,2013-04-28 08:51:00,
2013-04-28 05:06:00,53.2,52.9,29.63,SSE,157,4.2,-999.0,99,-99.99,,,0.08,Acu-Link.com,2013-04-28 09:06:00,
2013-04-28 05:21:00,53.2,52.9,29.64,SSE,157,4.7,-999.0,99,-99.99,,,0.08,Acu-Link.com,2013-04-28 09:21:00,
2013-04-28 05:37:00,53.6,53.3,29.64,SE,135,3.2,-999.0,99,-99.99,,,0.08,Acu-Link.com,2013-04-28 09:37:00,
2013-04-28 05:52:00,53.6,53.3,29.63,SSE,157,5.3,-999.0,99,-99.99,,,0.08,Acu-Link.com,2013-04-28 09:52:00,
2013-04-28 06:07:00,53.6,53.3,29.63,SSE,157,4.2,-999.0,99,-99.99,,,0.08,Acu-Link.com,2013-04-28 10:07:00,
2013-04-28 06:22:00,53.6,53.3,29.63,SE,135,5.3,-999.0,99,-99.99,,,0.10,Acu-Link.com,2013-04-28 10:22:00,
2013-04-28 06:37:00,53.8,53.5,29.62,SE,135,4.7,-999.0,99,-99.99,,,0.11,Acu-Link.com,2013-04-28 10:37:00,
2013-04-28 06:52:00,53.8,53.5,29.62,SSE,157,2.7,-999.0,99,-99.99,,,0.12,Acu-Link.com,2013-04-28 10:52:00,
2013-04-28 07:08:00,53.8,53.5,29.62,SSE,157,3.7,-999.0,99,-99.99,,,0.12,Acu-Link.com,2013-04-28 11:08:00,
2013-04-28 07:23:00,54.0,53.7,29.62,South,180,4.7,-999.0,99,-99.99,,,0.13,Acu-Link.com,2013-04-28 11:23:00,
2013-04-28 07:38:00,54.1,53.8,29.62,South,180,3.2,-999.0,99,-99.99,,,0.13,Acu-Link.com,2013-04-28 11:38:00,
2013-04-28 07:53:00,54.1,53.8,29.62,South,180,2.2,-999.0,99,-99.99,,,0.17,Acu-Link.com,2013-04-28 11:53:00,
2013-04-28 08:08:00,54.3,54.0,29.63,SSE,157,2.2,-999.0,99,-99.99,,,0.18,Acu-Link.com,2013-04-28 12:08:00,
2013-04-28 08:24:00,54.3,54.0,29.62,ESE,112,2.7,-999.0,99,-99.99,,,0.25,Acu-Link.com,2013-04-28 12:24:00,
2013-04-28 08:39:00,54.3,54.0,29.62,SSE,157,3.2,-999.0,99,-99.99,,,0.29,Acu-Link.com,2013-04-28 12:39:00,
2013-04-28 08:54:00,54.3,54.0,29.62,SSE,157,2.7,-999.0,99,-99.99,,,0.32,Acu-Link.com,2013-04-28 12:54:00,
2013-04-28 09:10:00,54.5,54.2,29.62,SSE,157,4.7,-999.0,99,-99.99,,,0.36,Acu-Link.com,2013-04-28 13:10:00,
2013-04-28 09:25:00,54.9,54.6,29.61,ESE,112,3.2,-999.0,99,-99.99,,,0.42,Acu-Link.com,2013-04-28 13:25:00,
2013-04-28 09:40:00,55.0,54.7,29.62,SSE,157,4.7,-999.0,99,-99.99,,,0.42,Acu-Link.com,2013-04-28 13:40:00,
2013-04-28 09:55:00,55.2,54.9,29.61,SSE,157,3.2,-999.0,99,-99.99,,,0.42,Acu-Link.com,2013-04-28 13:55:00,
2013-04-28 10:10:00,55.6,55.3,29.61,SE,135,4.7,-999.0,99,-99.99,,,0.42,Acu-Link.com,2013-04-28 14:10:00,
2013-04-28 10:25:00,55.6,55.3,29.61,ESE,112,4.7,-999.0,99,-99.99,,,0.42,Acu-Link.com,2013-04-28 14:25:00,
2013-04-28 10:40:00,55.8,55.5,29.61,SSE,157,4.7,-999.0,99,-99.99,,,0.42,Acu-Link.com,2013-04-28 14:40:00,
2013-04-28 10:55:00,55.9,55.6,29.61,SSW,202,4.2,-999.0,99,-99.99,,,0.42,Acu-Link.com,2013-04-28 14:55:00,
2013-04-28 11:10:00,56.3,56.0,29.60,ESE,112,5.8,-999.0,99,-99.99,,,0.42,Acu-Link.com,2013-04-28 15:10:00,
2013-04-28 11:26:00,56.7,56.4,29.61,SE,135,6.3,-999.0,99,-99.99,,,0.42,Acu-Link.com,2013-04-28 15:26:00,
2013-04-28 11:41:00,57.0,56.7,29.61,South,180,4.7,-999.0,99,-99.99,,,0.42,Acu-Link.com,2013-04-28 15:41:00,
2013-04-28 11:56:00,57.2,56.9,29.61,SSE,157,5.8,-999.0,99,-99.99,,,0.42,Acu-Link.com,2013-04-28 15:56:00,
2013-04-28 12:11:00,57.0,56.7,29.61,ESE,112,4.7,-999.0,99,-99.99,,,0.42,Acu-Link.com,2013-04-28 16:11:00,
2013-04-28 12:26:00,57.9,57.6,29.60,SSW,202,5.3,-999.0,99,-99.99,,,0.42,Acu-Link.com,2013-04-28 16:26:00,
2013-04-28 12:41:00,57.7,57.4,29.60,SSW,202,6.3,-999.0,99,-99.99,,,0.42,Acu-Link.com,2013-04-28 16:41:00,
2013-04-28 12:56:00,58.5,58.2,29.59,SW,225,6.8,-999.0,99,-99.99,,,0.42,Acu-Link.com,2013-04-28 16:56:00,
2013-04-28 13:12:00,59.2,58.3,29.60,SSW,202,5.3,-999.0,97,-99.99,,,0.42,Acu-Link.com,2013-04-28 17:12:00,
2013-04-28 13:27:00,59.5,58.1,29.60,SSW,202,6.8,-999.0,95,-99.99,,,0.42,Acu-Link.com,2013-04-28 17:27:00,
2013-04-28 13:42:00,58.8,57.9,29.59,SSW,202,5.8,-999.0,97,-99.99,,,0.42,Acu-Link.com,2013-04-28 17:42:00,
2013-04-28 13:57:00,59.4,58.3,29.59,SW,225,8.3,-999.0,96,-99.99,,,0.42,Acu-Link.com,2013-04-28 17:57:00,
2013-04-28 14:13:00,60.6,58.9,29.59,SSW,202,7.8,-999.0,94,-99.99,,,0.42,Acu-Link.com,2013-04-28 18:13:00,
2013-04-28 14:28:00,60.3,58.6,29.59,SW,225,4.7,-999.0,94,-99.99,,,0.42,Acu-Link.com,2013-04-28 18:28:00,
2013-04-28 14:43:00,59.4,58.3,29.58,West,270,9.4,-999.0,96,-99.99,,,0.42,Acu-Link.com,2013-04-28 18:43:00,
2013-04-28 14:58:00,58.5,57.9,29.59,WSW,247,5.8,-999.0,98,-99.99,,,0.42,Acu-Link.com,2013-04-28 18:58:00,
2013-04-28 15:14:00,58.1,57.8,29.59,WSW,247,3.7,-999.0,99,-99.99,,,0.42,Acu-Link.com,2013-04-28 19:14:00,
2013-04-28 15:29:00,58.3,58.0,29.59,NNW,337,3.2,-999.0,99,-99.99,,,0.42,Acu-Link.com,2013-04-28 19:29:00,
2013-04-28 15:44:00,58.8,58.5,29.58,West,270,6.8,-999.0,99,-99.99,,,0.43,Acu-Link.com,2013-04-28 19:44:00,
2013-04-28 15:59:00,58.5,58.2,29.58,West,270,5.3,-999.0,99,-99.99,,,0.43,Acu-Link.com,2013-04-28 19:59:00,
2013-04-28 16:14:00,58.8,58.5,29.58,WSW,247,7.8,-999.0,99,-99.99,,,0.43,Acu-Link.com,2013-04-28 20:14:00,
2013-04-28 16:29:00,58.6,58.3,29.58,West,270,6.3,-999.0,99,-99.99,,,0.43,Acu-Link.com,2013-04-28 20:29:00,
2013-04-28 16:45:00,58.5,58.2,29.58,West,270,7.3,-999.0,99,-99.99,,,0.43,Acu-Link.com,2013-04-28 20:45:00,
2013-04-28 17:00:00,57.9,57.6,29.58,SSW,202,3.7,-999.0,99,-99.99,,,0.43,Acu-Link.com,2013-04-28 21:00:00,
2013-04-28 17:15:00,57.6,57.3,29.58,WSW,247,6.8,-999.0,99,-99.99,,,0.43,Acu-Link.com,2013-04-28 21:15:00,
2013-04-28 17:30:00,57.4,57.1,29.58,West,270,6.3,-999.0,99,-99.99,,,0.44,Acu-Link.com,2013-04-28 21:30:00,
2013-04-28 17:46:00,57.4,57.1,29.59,West,270,5.3,-999.0,99,-99.99,,,0.44,Acu-Link.com,2013-04-28 21:46:00,
2013-04-28 18:01:00,57.0,56.7,29.59,NW,315,7.3,-999.0,99,-99.99,,,0.45,Acu-Link.com,2013-04-28 22:01:00,
2013-04-28 18:16:00,57.4,57.1,29.59,West,270,8.3,-999.0,99,-99.99,,,0.46,Acu-Link.com,2013-04-28 22:16:00,
2013-04-28 18:31:00,57.9,57.6,29.59,NW,315,4.7,-999.0,99,-99.99,,,0.46,Acu-Link.com,2013-04-28 22:31:00,
2013-04-28 18:46:00,58.1,57.8,29.59,West,270,4.7,-999.0,99,-99.99,,,0.46,Acu-Link.com,2013-04-28 22:46:00,
2013-04-28 19:01:00,58.3,58.0,29.59,East,90,4.7,-999.0,99,-99.99,,,0.46,Acu-Link.com,2013-04-28 23:01:00,
2013-04-28 19:16:00,58.1,57.8,29.60,West,270,6.3,-999.0,99,-99.99,,,0.46,Acu-Link.com,2013-04-28 23:16:00,
2013-04-28 19:32:00,57.9,57.6,29.59,SW,225,6.3,-999.0,99,-99.99,,,0.46,Acu-Link.com,2013-04-28 23:32:00,
2013-04-28 19:47:00,57.4,57.1,29.60,West,270,5.8,-999.0,99,-99.99,,,0.46,Acu-Link.com,2013-04-28 23:47:00,
2013-04-28 20:02:00,57.0,56.7,29.60,West,270,2.7,-999.0,99,-99.99,,,0.46,Acu-Link.com,2013-04-29 00:02:00,
2013-04-28 20:17:00,57.0,56.7,29.60,West,270,2.2,-999.0,99,-99.99,,,0.46,Acu-Link.com,2013-04-29 00:17:00,
2013-04-28 20:32:00,56.8,56.5,29.60,SSW,202,3.7,-999.0,99,-99.99,,,0.46,Acu-Link.com,2013-04-29 00:32:00,
2013-04-28 20:47:00,56.8,56.5,29.61,WSW,247,2.7,-999.0,99,-99.99,,,0.46,Acu-Link.com,2013-04-29 00:47:00,
2013-04-28 21:03:00,56.5,56.2,29.61,West,270,2.7,-999.0,99,-99.99,,,0.46,Acu-Link.com,2013-04-29 01:03:00,
2013-04-28 21:18:00,56.5,56.2,29.60,WSW,247,3.2,-999.0,99,-99.99,,,0.46,Acu-Link.com,2013-04-29 01:18:00,
2013-04-28 21:33:00,56.5,56.2,29.61,West,270,4.2,-999.0,99,-99.99,,,0.46,Acu-Link.com,2013-04-29 01:33:00,
2013-04-28 21:48:00,56.5,56.2,29.61,West,270,4.7,-999.0,99,-99.99,,,0.46,Acu-Link.com,2013-04-29 01:48:00,
2013-04-28 22:03:00,56.5,56.2,29.62,WSW,247,4.7,-999.0,99,-99.99,,,0.46,Acu-Link.com,2013-04-29 02:03:00,
2013-04-28 22:18:00,56.5,56.2,29.63,West,270,1.7,-999.0,99,-99.99,,,0.46,Acu-Link.com,2013-04-29 02:18:00,
2013-04-28 22:34:00,56.3,56.0,29.63,WSW,247,4.2,-999.0,99,-99.99,,,0.46,Acu-Link.com,2013-04-29 02:34:00,
2013-04-28 22:49:00,56.3,56.0,29.64,SW,225,3.7,-999.0,99,-99.99,,,0.46,Acu-Link.com,2013-04-29 02:49:00,
2013-04-28 23:04:00,56.1,55.8,29.64,SW,225,2.7,-999.0,99,-99.99,,,0.46,Acu-Link.com,2013-04-29 03:04:00,
2013-04-28 23:19:00,56.1,55.8,29.64,WSW,247,2.2,-999.0,99,-99.99,,,0.46,Acu-Link.com,2013-04-29 03:19:00,
2013-04-28 23:34:00,55.9,55.6,29.64,SSW,202,3.7,-999.0,99,-99.99,,,0.46,Acu-Link.com,2013-04-29 03:34:00,
2013-04-28 23:50:00,55.9,55.6,29.64,SW,225,3.7,-999.0,99,-99.99,,,0.46,Acu-Link.com,2013-04-29 03:50:00,